ハーゲンローザー彗星

168P/Hergenrother (2005)

English version
Home page
Updated on April 23, 2006

---------------------------------------------------------------------

・ プロフィール

符号 168P/2005 N2
検出日 2005年7月4日
検出光度 20.3等
検出者 D. Herald, Kambah (near Canberra, A.C.T.)

・ 写真集

・ 軌道要素

Epoch 2005 Nov. 6.0 TT = JDT 2453680.5
T 2005 Nov. 2.48108 TT                                  MPC
q   1.4257730            (2000.0)            P               Q
n   0.14235383     Peri.   13.87837     +0.98257480     -0.18447068
a   3.6326477      Node   356.50303     +0.11390893     +0.69434279
e   0.6075113      Incl.   21.89409     +0.14687245     +0.69559949
P   6.92

・ 星図

・ 光度変化

        m1 = 15.5 + 5 logΔ + 10.0 log r

---------------------------------------------------------------------

軌道要素はM.P.E.C. 2005-N28に掲載されたものです。
星図は StellaNavigator Ver.2.0 for Windows (アストロアーツ 編著 / アスキー出版局刊) で作成したものです。
光度グラフはComet for Windowsで作成したものです。

---------------------------------------------------------------------

Copyright(C) Seiichi Yoshida (comet@aerith.net). All rights reserved.